Time,TemperatureF,DewpointF,PressureIn,WindDirection,WindDirectionDegrees,WindSpeedMPH,WindSpeedGustMPH,Humidity,HourlyPrecipIn,Conditions,Clouds,dailyrainin,SoftwareType,DateUTC
2013-06-26 00:01:00,69.0,61.0,30.12,West,272,7.0,12.0,77,0.00,,,0.00,,2013-06-26 04:01:00,
2013-06-26 00:22:00,69.0,62.0,30.12,West,270,4.0,12.0,78,0.00,,,0.00,,2013-06-26 04:22:00,
2013-06-26 00:53:00,69.0,61.0,30.11,West,281,5.0,14.0,77,0.00,,,0.00,,2013-06-26 04:53:00,
2013-06-26 01:02:00,69.0,61.0,30.11,West,280,9.0,16.0,77,0.00,,,0.00,,2013-06-26 05:02:00,
2013-06-26 01:34:00,68.0,62.0,30.09,West,275,8.0,15.0,81,0.00,,,0.00,,2013-06-26 05:34:00,
2013-06-26 01:43:00,69.0,63.0,30.09,WNW,291,7.0,15.0,81,0.00,,,0.00,,2013-06-26 05:43:00,
2013-06-26 02:11:00,68.0,63.0,30.09,WNW,293,6.0,14.0,83,0.00,,,0.00,,2013-06-26 06:11:00,
2013-06-26 02:34:00,68.0,63.0,30.09,WNW,283,7.0,15.0,84,0.00,,,0.00,,2013-06-26 06:34:00,
2013-06-26 02:43:00,68.0,64.0,30.08,WNW,288,6.0,15.0,86,0.00,,,0.00,,2013-06-26 06:43:00,
2013-06-26 02:53:00,67.0,63.0,30.08,WNW,290,8.0,13.0,87,0.00,,,0.00,,2013-06-26 06:53:00,
2013-06-26 03:01:00,67.0,63.0,30.08,WNW,290,8.0,13.0,87,0.00,,,0.00,,2013-06-26 07:01:00,
2013-06-26 03:11:00,67.0,63.0,30.07,West,279,6.0,14.0,87,0.00,,,0.00,,2013-06-26 07:11:00,
2013-06-26 03:33:00,68.0,63.0,30.06,WNW,288,7.0,15.0,85,0.00,,,0.00,,2013-06-26 07:33:00,
2013-06-26 03:43:00,67.0,63.0,30.06,WNW,285,6.0,15.0,86,0.00,,,0.00,,2013-06-26 07:43:00,
2013-06-26 03:53:00,68.0,63.0,30.06,WNW,286,7.0,16.0,83,0.00,,,0.00,,2013-06-26 07:53:00,
2013-06-26 04:11:00,67.0,63.0,30.06,West,275,9.0,15.0,88,0.00,,,0.00,,2013-06-26 08:11:00,
2013-06-26 04:42:00,68.0,62.0,30.06,West,266,8.0,19.0,81,0.00,,,0.00,,2013-06-26 08:42:00,
2013-06-26 04:52:00,67.0,63.0,30.06,West,274,12.0,22.0,87,0.00,,,0.00,,2013-06-26 08:52:00,
2013-06-26 05:01:00,67.0,63.0,30.06,West,274,12.0,22.0,87,0.00,,,0.00,,2013-06-26 09:01:00,
2013-06-26 05:11:00,66.0,62.0,30.05,West,277,11.0,20.0,86,0.00,,,0.00,,2013-06-26 09:11:00,
2013-06-26 05:22:00,66.0,62.0,30.05,West,277,11.0,20.0,86,0.00,,,0.00,,2013-06-26 09:22:00,
2013-06-26 05:33:00,67.0,62.0,30.06,WNW,285,6.0,18.0,83,0.00,,,0.00,,2013-06-26 09:33:00,
2013-06-26 05:43:00,67.0,61.0,30.06,WNW,282,7.0,14.0,82,0.00,,,0.00,,2013-06-26 09:43:00,
2013-06-26 06:22:00,67.0,61.0,30.06,West,277,9.0,18.0,82,0.00,,,0.00,,2013-06-26 10:22:00,
2013-06-26 07:22:00,67.0,61.0,30.09,WSW,239,5.0,13.0,82,0.00,,,0.00,,2013-06-26 11:22:00,
2013-06-26 07:33:00,66.0,61.0,30.09,West,259,5.0,15.0,85,0.00,,,0.00,,2013-06-26 11:33:00,
2013-06-26 07:44:00,66.0,62.0,30.09,WNW,288,5.0,16.0,87,0.00,,,0.00,,2013-06-26 11:44:00,
2013-06-26 07:52:00,66.0,62.0,30.09,WNW,288,5.0,16.0,87,0.00,,,0.00,,2013-06-26 11:52:00,
2013-06-26 08:02:00,66.0,62.0,30.09,West,273,5.0,18.0,87,0.00,,,0.00,,2013-06-26 12:02:00,
2013-06-26 08:22:00,66.0,62.0,30.09,West,264,5.0,19.0,86,0.00,,,0.00,,2013-06-26 12:22:00,
2013-06-26 08:33:00,66.0,62.0,30.09,West,279,6.0,21.0,86,0.00,,,0.00,,2013-06-26 12:33:00,
2013-06-26 08:43:00,67.0,63.0,30.09,West,272,4.0,13.0,87,0.00,,,0.00,,2013-06-26 12:43:00,
2013-06-26 08:52:00,67.0,63.0,30.09,West,272,4.0,13.0,87,0.00,,,0.00,,2013-06-26 12:52:00,
2013-06-26 09:34:00,68.0,64.0,30.09,West,271,7.0,16.0,87,0.00,,,0.00,,2013-06-26 13:34:00,
2013-06-26 10:02:00,69.0,64.0,30.08,WSW,254,4.0,13.0,85,0.00,,,0.00,,2013-06-26 14:02:00,
2013-06-26 10:12:00,70.0,65.0,30.08,WNW,286,5.0,13.0,84,0.00,,,0.00,,2013-06-26 14:12:00,
2013-06-26 10:34:00,70.0,65.0,30.08,WSW,247,5.0,12.0,84,0.00,,,0.00,,2013-06-26 14:34:00,
2013-06-26 10:42:00,70.0,65.0,30.08,West,261,4.0,17.0,84,0.00,,,0.00,,2013-06-26 14:42:00,
2013-06-26 10:53:00,70.0,65.0,30.08,West,261,4.0,17.0,84,0.00,,,0.00,,2013-06-26 14:53:00,
2013-06-26 11:02:00,71.0,66.0,30.07,West,263,5.0,18.0,84,0.00,,,0.00,,2013-06-26 15:02:00,
2013-06-26 11:12:00,72.0,66.0,30.08,WSW,243,4.0,13.0,82,0.00,,,0.00,,2013-06-26 15:12:00,
2013-06-26 11:34:00,72.0,66.0,30.08,WNW,283,6.0,16.0,81,0.00,,,0.00,,2013-06-26 15:34:00,
2013-06-26 11:44:00,72.0,65.0,30.08,West,267,4.0,16.0,80,0.00,,,0.00,,2013-06-26 15:44:00,
2013-06-26 12:01:00,73.0,66.0,30.08,West,275,3.0,11.0,79,0.00,,,0.00,,2013-06-26 16:01:00,
2013-06-26 12:11:00,73.0,66.0,30.08,WSW,253,4.0,12.0,80,0.00,,,0.00,,2013-06-26 16:11:00,
2013-06-26 12:34:00,74.0,67.0,30.08,WSW,253,4.0,12.0,79,0.00,,,0.00,,2013-06-26 16:34:00,
2013-06-26 12:43:00,76.0,67.0,30.08,NW,312,6.0,11.0,75,0.00,,,0.00,,2013-06-26 16:43:00,
2013-06-26 13:02:00,76.0,67.0,30.07,West,260,2.0,8.0,73,0.00,,,0.00,,2013-06-26 17:02:00,
2013-06-26 13:23:00,76.0,66.0,30.07,WNW,292,6.0,11.0,71,0.00,,,0.00,,2013-06-26 17:23:00,
2013-06-26 13:33:00,75.0,67.0,30.07,WNW,286,2.0,6.0,75,0.00,,,0.00,,2013-06-26 17:33:00,
2013-06-26 13:43:00,77.0,66.0,30.06,WNW,299,3.0,10.0,70,0.00,,,0.00,,2013-06-26 17:43:00,
2013-06-26 13:52:00,77.0,66.0,30.06,WNW,299,3.0,10.0,70,0.00,,,0.00,,2013-06-26 17:52:00,
2013-06-26 14:01:00,78.0,67.0,30.06,SSW,207,1.0,11.0,69,0.00,,,0.00,,2013-06-26 18:01:00,
2013-06-26 14:12:00,79.0,68.0,30.05,NNW,331,2.0,6.0,68,0.00,,,0.00,,2013-06-26 18:12:00,
2013-06-26 14:34:00,79.0,66.0,30.04,SSW,195,3.0,7.0,65,0.00,,,0.00,,2013-06-26 18:34:00,
2013-06-26 14:43:00,80.0,67.0,30.03,SW,230,3.0,8.0,64,0.00,,,0.00,,2013-06-26 18:43:00,
2013-06-26 15:02:00,78.0,67.0,30.05,West,278,4.0,12.0,68,0.00,,,0.00,,2013-06-26 19:02:00,
2013-06-26 16:33:00,64.0,61.0,30.03,WNW,287,4.0,9.0,91,0.03,,,0.48,,2013-06-26 20:33:00,
2013-06-26 16:43:00,65.0,62.0,30.03,WSW,252,3.0,9.0,91,0.05,,,0.50,,2013-06-26 20:43:00,
2013-06-26 16:52:00,65.0,62.0,30.03,WSW,252,3.0,9.0,91,0.05,,,0.50,,2013-06-26 20:52:00,
2013-06-26 17:02:00,65.0,62.0,30.03,WNW,282,6.0,15.0,91,0.05,,,0.50,,2013-06-26 21:02:00,
2013-06-26 17:12:00,66.0,63.0,30.03,WNW,283,6.0,18.0,91,0.04,,,0.50,,2013-06-26 21:12:00,
2013-06-26 17:33:00,66.0,63.0,30.02,West,276,6.0,17.0,89,0.02,,,0.50,,2013-06-26 21:33:00,
2013-06-26 17:43:00,67.0,64.0,30.03,West,270,4.0,18.0,89,0.00,,,0.50,,2013-06-26 21:43:00,
2013-06-26 18:01:00,68.0,64.0,30.03,West,272,6.0,21.0,86,0.00,,,0.50,,2013-06-26 22:01:00,
2013-06-26 18:22:00,68.0,64.0,30.03,West,269,4.0,11.0,86,0.00,,,0.50,,2013-06-26 22:22:00,
2013-06-26 18:34:00,68.0,64.0,30.02,West,281,2.0,9.0,87,0.00,,,0.50,,2013-06-26 22:34:00,
2013-06-26 18:43:00,68.0,64.0,30.01,West,274,5.0,10.0,86,0.00,,,0.50,,2013-06-26 22:43:00,
2013-06-26 18:52:00,68.0,64.0,30.01,West,274,5.0,10.0,86,0.00,,,0.50,,2013-06-26 22:52:00,
2013-06-26 19:02:00,68.0,64.0,30.02,West,276,5.0,11.0,87,0.00,,,0.50,,2013-06-26 23:02:00,
2013-06-26 19:11:00,68.0,64.0,30.02,West,270,5.0,11.0,87,0.00,,,0.50,,2013-06-26 23:11:00,
2013-06-26 19:34:00,68.0,64.0,30.03,West,279,4.0,11.0,88,0.00,,,0.50,,2013-06-26 23:34:00,
2013-06-26 19:43:00,68.0,64.0,30.03,WNW,292,3.0,11.0,88,0.00,,,0.50,,2013-06-26 23:43:00,
2013-06-26 19:52:00,69.0,65.0,30.02,NW,324,2.0,7.0,86,0.00,,,0.50,,2013-06-26 23:52:00,
2013-06-26 20:01:00,69.0,65.0,30.02,NW,324,2.0,7.0,86,0.00,,,0.50,,2013-06-27 00:01:00,
2013-06-26 20:12:00,69.0,65.0,30.02,NW,324,2.0,7.0,86,0.00,,,0.50,,2013-06-27 00:12:00,
2013-06-26 20:33:00,69.0,65.0,30.02,NW,305,3.0,9.0,88,0.00,,,0.50,,2013-06-27 00:33:00,
2013-06-26 20:43:00,69.0,66.0,30.02,West,262,1.0,11.0,89,0.00,,,0.50,,2013-06-27 00:43:00,
2013-06-26 20:53:00,69.0,66.0,30.02,West,262,1.0,11.0,89,0.00,,,0.50,,2013-06-27 00:53:00,
2013-06-26 21:01:00,69.0,65.0,30.02,West,273,3.0,9.0,88,0.00,,,0.50,,2013-06-27 01:01:00,
2013-06-26 21:11:00,69.0,65.0,30.02,West,273,3.0,9.0,88,0.00,,,0.50,,2013-06-27 01:11:00,
2013-06-26 21:21:00,69.0,65.0,30.02,West,273,3.0,9.0,88,0.00,,,0.50,,2013-06-27 01:21:00,
2013-06-26 21:32:00,69.0,65.0,30.02,North,0,0.0,3.0,88,0.00,,,0.50,,2013-06-27 01:32:00,
2013-06-26 21:43:00,67.0,65.0,30.02,North,0,0.0,2.0,92,0.00,,,0.50,,2013-06-27 01:43:00,
2013-06-26 21:53:00,67.0,65.0,30.02,North,0,0.0,2.0,92,0.00,,,0.50,,2013-06-27 01:53:00,
2013-06-26 22:01:00,66.0,64.0,30.03,North,0,0.0,1.0,93,0.00,,,0.50,,2013-06-27 02:01:00,
2013-06-26 22:11:00,66.0,64.0,30.03,North,0,0.0,1.0,93,0.00,,,0.50,,2013-06-27 02:11:00,
2013-06-26 22:22:00,66.0,64.0,30.03,North,0,0.0,1.0,93,0.00,,,0.50,,2013-06-27 02:22:00,
2013-06-26 22:32:00,66.0,64.0,30.03,North,0,0.0,1.0,93,0.00,,,0.50,,2013-06-27 02:32:00,
2013-06-26 22:42:00,66.0,63.0,30.02,North,0,0.0,2.0,91,0.00,,,0.50,,2013-06-27 02:42:00,
2013-06-26 22:52:00,66.0,63.0,30.02,North,0,0.0,2.0,91,0.00,,,0.50,,2013-06-27 02:52:00,
2013-06-26 23:11:00,67.0,64.0,30.02,WSW,257,1.0,8.0,91,0.00,,,0.50,,2013-06-27 03:11:00,
2013-06-26 23:21:00,67.0,64.0,30.03,West,260,3.0,9.0,90,0.00,,,0.50,,2013-06-27 03:21:00,
2013-06-26 23:33:00,67.0,64.0,30.03,West,260,3.0,9.0,90,0.00,,,0.50,,2013-06-27 03:33:00,
2013-06-26 23:42:00,67.0,64.0,30.03,West,260,3.0,9.0,90,0.00,,,0.50,,2013-06-27 03:42:00,
2013-06-26 23:52:00,68.0,65.0,30.03,WSW,238,3.0,8.0,89,0.00,,,0.50,,2013-06-27 03:52:00,